CEB463 RPVI-RPLL

Flight info

Callsign CEB463
Flight time 0h 48m
Altitude 30000
Route LAMBO1N LAMBO B472 IBAGO IBAGO5R
Aircraft A321/M-SDE3FGHIRWY/LB1

Departure

Time 2026-04-20 13:47
Airport Iloilo International Airport (RPVI)

Arrival

Time 2026-04-20 14:35
Airport Ninoy Aquino International Airport (RPLL)
Time Latitude Longitude Altitude Speed Heading
2026-04-20 13:28 10.83165 122.49659 175 ft 0 kts 110°
2026-04-20 13:36 10.83169 122.49647 175 ft 2 kts 108°
2026-04-20 13:36 10.83174 122.49632 175 ft 2 kts 111°
2026-04-20 13:37 10.83179 122.49618 175 ft 2 kts 110°
2026-04-20 13:37 10.83184 122.49603 175 ft 2 kts 121°
2026-04-20 13:37 10.83196 122.49594 175 ft 2 kts 162°
2026-04-20 13:37 10.83211 122.49593 175 ft 1 kts 195°
2026-04-20 13:38 10.83216 122.49595 175 ft 1 kts 203°
2026-04-20 13:38 10.83219 122.49596 175 ft 0 kts 201°
2026-04-20 13:38 10.83218 122.49596 175 ft 0 kts 201°
2026-04-20 13:40 10.83213 122.49594 175 ft 1 kts 201°
2026-04-20 13:40 10.83200 122.49589 175 ft 2 kts 198°
2026-04-20 13:40 10.83170 122.49579 175 ft 5 kts 199°
2026-04-20 13:40 10.83129 122.49564 175 ft 6 kts 199°
2026-04-20 13:41 10.83089 122.49549 175 ft 6 kts 200°
2026-04-20 13:41 10.83044 122.49531 175 ft 7 kts 215°
2026-04-20 13:41 10.83029 122.49482 175 ft 8 kts 282°
2026-04-20 13:41 10.83048 122.49423 175 ft 9 kts 290°
2026-04-20 13:42 10.83071 122.49361 175 ft 10 kts 290°
2026-04-20 13:42 10.83093 122.49265 176 ft 4 kts 228°
2026-04-20 13:42 10.83054 122.49246 176 ft 7 kts 201°
2026-04-20 13:43 10.83000 122.49225 176 ft 8 kts 200°
2026-04-20 13:43 10.82938 122.49201 176 ft 10 kts 200°
2026-04-20 13:43 10.82859 122.49173 176 ft 12 kts 200°
2026-04-20 13:43 10.82774 122.49141 176 ft 13 kts 200°
2026-04-20 13:44 10.82686 122.49108 176 ft 13 kts 200°
2026-04-20 13:44 10.82595 122.49075 176 ft 14 kts 200°
2026-04-20 13:44 10.82500 122.49040 176 ft 14 kts 200°
2026-04-20 13:44 10.82404 122.49004 176 ft 14 kts 199°
2026-04-20 13:45 10.82317 122.48985 176 ft 11 kts 173°
2026-04-20 13:45 10.82262 122.48983 176 ft 6 kts 212°
2026-04-20 13:45 10.82257 122.48952 176 ft 2 kts 333°
2026-04-20 13:45 10.82273 122.48955 176 ft 0 kts 20°
2026-04-20 13:46 10.82275 122.48956 176 ft 3 kts 20°
2026-04-20 13:46 10.82540 122.49054 176 ft 77 kts 19°
2026-04-20 13:46 10.83268 122.49325 176 ft 141 kts 20°
2026-04-20 13:46 10.84337 122.49715 326 ft 177 kts 21°
2026-04-20 13:47 10.85456 122.50134 1103 ft 170 kts 24°
2026-04-20 13:47 10.86538 122.50568 1863 ft 166 kts 25°
2026-04-20 13:47 10.87596 122.50993 2302 ft 167 kts 25°
2026-04-20 13:47 10.88714 122.51429 2573 ft 179 kts 24°
2026-04-20 13:48 10.89931 122.51886 2847 ft 192 kts 23°
2026-04-20 13:48 10.91248 122.52343 3148 ft 205 kts 22°
2026-04-20 13:48 10.92694 122.52694 3351 ft 228 kts
2026-04-20 13:48 10.94293 122.52201 3590 ft 255 kts 330°
2026-04-20 13:49 10.95753 122.51042 3966 ft 271 kts 324°
2026-04-20 13:49 10.97252 122.49842 4556 ft 276 kts 325°
2026-04-20 13:49 10.98770 122.48649 5223 ft 278 kts 325°
2026-04-20 13:49 11.00314 122.47443 5876 ft 282 kts 325°
2026-04-20 13:50 11.01889 122.46219 6531 ft 285 kts 325°
2026-04-20 13:50 11.03453 122.45003 7182 ft 288 kts 325°
2026-04-20 13:50 11.05063 122.43752 7858 ft 290 kts 324°
2026-04-20 13:50 11.06662 122.42511 8505 ft 293 kts 324°
2026-04-20 13:51 11.08291 122.41246 9144 ft 296 kts 324°
2026-04-20 13:51 11.09937 122.39969 9768 ft 299 kts 324°
2026-04-20 13:51 11.11595 122.38684 10359 ft 303 kts 324°
2026-04-20 13:51 11.13326 122.37343 10679 ft 317 kts 324°
2026-04-20 13:52 11.15141 122.35987 10938 ft 331 kts 327°
2026-04-20 13:52 11.17167 122.34759 11271 ft 341 kts 334°
2026-04-20 13:52 11.19316 122.33740 11789 ft 344 kts 338°
2026-04-20 13:52 11.21546 122.32772 12343 ft 346 kts 338°
2026-04-20 13:53 11.23743 122.31829 12862 ft 348 kts 338°
2026-04-20 13:53 11.26026 122.30848 13373 ft 351 kts 338°
2026-04-20 13:53 11.28307 122.29865 13845 ft 354 kts 338°
2026-04-20 13:53 11.30580 122.28885 14289 ft 357 kts 338°
2026-04-20 13:54 11.32877 122.27891 14719 ft 361 kts 338°
2026-04-20 13:54 11.35215 122.26879 15146 ft 364 kts 338°
2026-04-20 13:54 11.37556 122.25866 15561 ft 367 kts 337°
2026-04-20 13:54 11.39934 122.24835 15977 ft 370 kts 337°
2026-04-20 13:55 11.42307 122.23806 16365 ft 373 kts 337°
2026-04-20 13:55 11.44708 122.22765 16754 ft 376 kts 337°
2026-04-20 13:55 11.47141 122.21710 17132 ft 378 kts 337°
2026-04-20 13:55 11.49570 122.20657 17505 ft 381 kts 337°
2026-04-20 13:56 11.52027 122.19590 17872 ft 383 kts 337°
2026-04-20 13:56 11.54502 122.18516 18227 ft 386 kts 337°
2026-04-20 13:56 11.56996 122.17434 18577 ft 389 kts 337°
2026-04-20 13:56 11.59486 122.16354 18931 ft 391 kts 337°
2026-04-20 13:57 11.62024 122.15251 19294 ft 393 kts 336°
2026-04-20 13:57 11.64554 122.14152 19630 ft 395 kts 336°
2026-04-20 13:57 11.67093 122.13049 19958 ft 398 kts 336°
2026-04-20 13:57 11.69625 122.11948 20288 ft 400 kts 336°
2026-04-20 13:58 11.72224 122.10818 20625 ft 402 kts 336°
2026-04-20 13:58 11.74801 122.09698 20929 ft 405 kts 336°
2026-04-20 13:58 11.77387 122.08573 21233 ft 407 kts 336°
2026-04-20 13:58 11.80029 122.07424 21557 ft 409 kts 336°
2026-04-20 13:59 11.82634 122.06290 21868 ft 412 kts 336°
2026-04-20 13:59 11.85286 122.05137 22176 ft 414 kts 336°
2026-04-20 13:59 11.87970 122.03969 22495 ft 416 kts 336°
2026-04-20 13:59 11.90623 122.02814 22800 ft 418 kts 336°
2026-04-20 14:00 11.93328 122.01636 23116 ft 420 kts 336°
2026-04-20 14:00 11.96020 122.00465 23446 ft 421 kts 336°
2026-04-20 14:00 11.98707 121.99295 23783 ft 422 kts 336°
2026-04-20 14:00 12.01454 121.98099 24118 ft 424 kts 336°
2026-04-20 14:01 12.04144 121.96927 24426 ft 426 kts 336°
2026-04-20 14:01 12.06888 121.95731 24740 ft 427 kts 336°
2026-04-20 14:01 12.09648 121.94526 25030 ft 430 kts 336°
2026-04-20 14:01 12.12392 121.93328 25331 ft 431 kts 336°
2026-04-20 14:02 12.15187 121.92108 25623 ft 433 kts 336°
2026-04-20 14:02 12.17960 121.90898 25889 ft 435 kts 336°
2026-04-20 14:02 12.20782 121.89665 26172 ft 437 kts 335°
2026-04-20 14:02 12.23562 121.88451 26444 ft 439 kts 335°
2026-04-20 14:03 12.26380 121.87219 26763 ft 439 kts 335°
2026-04-20 14:03 12.29191 121.85989 27163 ft 438 kts 335°
2026-04-20 14:03 12.31981 121.84769 27565 ft 436 kts 335°
2026-04-20 14:03 12.34779 121.83546 27954 ft 434 kts 335°
2026-04-20 14:04 12.37559 121.82331 28322 ft 434 kts 335°
2026-04-20 14:04 12.40339 121.81120 28634 ft 434 kts 335°
2026-04-20 14:04 12.43152 121.79894 28928 ft 436 kts 335°
2026-04-20 14:04 12.45945 121.78674 29202 ft 437 kts 335°
2026-04-20 14:05 12.48761 121.77444 29469 ft 439 kts 335°
2026-04-20 14:05 12.51586 121.76208 29734 ft 441 kts 335°
2026-04-20 14:05 12.54415 121.74969 29934 ft 443 kts 335°
2026-04-20 14:05 12.57253 121.73725 29941 ft 444 kts 335°
2026-04-20 14:06 12.62732 121.71322 29947 ft 445 kts 335°
2026-04-20 14:06 12.68447 121.68816 29952 ft 444 kts 335°
2026-04-20 14:07 12.74124 121.66325 29953 ft 444 kts 335°
2026-04-20 14:07 12.79827 121.63821 29951 ft 444 kts 335°
2026-04-20 14:08 12.85513 121.61324 29952 ft 444 kts 335°
2026-04-20 14:08 12.91195 121.58828 29958 ft 444 kts 335°
2026-04-20 14:09 12.96904 121.56317 29960 ft 444 kts 335°
2026-04-20 14:09 13.02580 121.53821 29962 ft 444 kts 335°
2026-04-20 14:10 13.08294 121.51305 29616 ft 443 kts 335°
2026-04-20 14:10 13.11132 121.50054 29359 ft 439 kts 335°
2026-04-20 14:10 13.13929 121.48822 29105 ft 436 kts 335°
2026-04-20 14:11 13.16713 121.47594 28851 ft 433 kts 335°
2026-04-20 14:11 13.19502 121.46364 28596 ft 432 kts 335°
2026-04-20 14:11 13.22244 121.45156 28354 ft 432 kts 335°
2026-04-20 14:11 13.25019 121.43932 28055 ft 432 kts 335°
2026-04-20 14:12 13.27780 121.42715 27626 ft 434 kts 335°
2026-04-20 14:12 13.30570 121.41483 27057 ft 434 kts 335°
2026-04-20 14:12 13.33347 121.40257 26435 ft 435 kts 336°
2026-04-20 14:12 13.36130 121.39028 25869 ft 432 kts 336°
2026-04-20 14:13 13.38864 121.37820 25409 ft 428 kts 336°
2026-04-20 14:13 13.41596 121.36612 24946 ft 423 kts 336°
2026-04-20 14:13 13.44289 121.35422 24518 ft 418 kts 336°
2026-04-20 14:13 13.46930 121.34254 24332 ft 401 kts 336°
2026-04-20 14:14 13.49466 121.33134 24212 ft 392 kts 336°
2026-04-20 14:14 13.51941 121.32033 23952 ft 383 kts 334°
2026-04-20 14:14 13.54223 121.30685 23815 ft 369 kts 323°
2026-04-20 14:14 13.56147 121.28998 23455 ft 364 kts 312°
2026-04-20 14:15 13.57839 121.27081 23040 ft 362 kts 309°
2026-04-20 14:15 13.59495 121.25111 22612 ft 361 kts 309°
2026-04-20 14:15 13.61137 121.23153 22200 ft 359 kts 309°
2026-04-20 14:15 13.62746 121.21246 21824 ft 357 kts 310°
2026-04-20 14:16 13.64376 121.19325 21439 ft 355 kts 310°
2026-04-20 14:16 13.66003 121.17416 21059 ft 353 kts 310°
2026-04-20 14:16 13.67627 121.15512 20664 ft 351 kts 310°
2026-04-20 14:16 13.69232 121.13632 20288 ft 350 kts 310°
2026-04-20 14:17 13.70833 121.11757 19894 ft 348 kts 310°
2026-04-20 14:17 13.72425 121.09893 19518 ft 346 kts 310°
2026-04-20 14:17 13.74017 121.08028 19143 ft 344 kts 310°
2026-04-20 14:17 13.75586 121.06188 18756 ft 343 kts 311°
2026-04-20 14:18 13.77159 121.04346 18389 ft 340 kts 311°
2026-04-20 14:18 13.78716 121.02522 18022 ft 338 kts 311°
2026-04-20 14:18 13.80263 121.00710 17657 ft 336 kts 311°
2026-04-20 14:18 13.81948 120.99042 17245 ft 335 kts 327°
2026-04-20 14:19 13.84066 120.98090 16860 ft 331 kts 348°
2026-04-20 14:19 13.86332 120.97787 16490 ft 329 kts 355°
2026-04-20 14:19 13.88613 120.97581 16107 ft 328 kts 356°
2026-04-20 14:19 13.90908 120.97369 15731 ft 327 kts 355°
2026-04-20 14:20 13.93150 120.97148 15351 ft 326 kts 355°
2026-04-20 14:20 13.95407 120.96914 14957 ft 325 kts 355°
2026-04-20 14:20 13.97655 120.96678 14568 ft 323 kts 355°
2026-04-20 14:20 13.99921 120.96439 14181 ft 322 kts 355°
2026-04-20 14:21 14.02128 120.96207 13805 ft 320 kts 355°
2026-04-20 14:21 14.04354 120.95972 13412 ft 318 kts 356°
2026-04-20 14:21 14.06564 120.95738 13030 ft 316 kts 355°
2026-04-20 14:21 14.08745 120.95506 12643 ft 315 kts 356°
2026-04-20 14:22 14.10933 120.95274 12248 ft 313 kts 356°
2026-04-20 14:22 14.13114 120.95044 11863 ft 311 kts 356°
2026-04-20 14:22 14.15249 120.94819 11727 ft 299 kts 356°
2026-04-20 14:22 14.17252 120.94427 11606 ft 290 kts 344°
2026-04-20 14:23 14.19110 120.93584 11286 ft 290 kts 334°
2026-04-20 14:23 14.20869 120.92548 10926 ft 289 kts 332°
2026-04-20 14:23 14.22591 120.91498 10569 ft 288 kts 332°
2026-04-20 14:23 14.24332 120.90446 10213 ft 286 kts 332°
2026-04-20 14:24 14.25925 120.89242 9959 ft 284 kts 311°
2026-04-20 14:24 14.26721 120.87434 9786 ft 278 kts 277°
2026-04-20 14:24 14.26449 120.85512 9517 ft 274 kts 244°
2026-04-20 14:24 14.25441 120.83855 9312 ft 268 kts 233°
2026-04-20 14:25 14.24354 120.82315 9066 ft 264 kts 234°
2026-04-20 14:25 14.23334 120.80759 8805 ft 260 kts 237°
2026-04-20 14:25 14.22394 120.79197 8548 ft 258 kts 239°
2026-04-20 14:25 14.21722 120.77510 8223 ft 257 kts 266°
2026-04-20 14:26 14.22067 120.75742 7888 ft 250 kts 305°
2026-04-20 14:26 14.23278 120.74536 7569 ft 241 kts 334°
2026-04-20 14:26 14.24777 120.73745 7262 ft 240 kts 336°
2026-04-20 14:26 14.26250 120.72964 6964 ft 239 kts 335°
2026-04-20 14:27 14.27722 120.72149 6684 ft 238 kts 334°
2026-04-20 14:27 14.29165 120.71325 6398 ft 236 kts 333°
2026-04-20 14:27 14.30612 120.70496 6117 ft 235 kts 336°
2026-04-20 14:27 14.32156 120.70094 5786 ft 228 kts
2026-04-20 14:28 14.33582 120.70699 5467 ft 222 kts 45°
2026-04-20 14:28 14.34460 120.71991 5180 ft 220 kts 62°
2026-04-20 14:28 14.35152 120.73370 4858 ft 221 kts 63°
2026-04-20 14:28 14.35856 120.74794 4566 ft 219 kts 63°
2026-04-20 14:29 14.36569 120.76183 4278 ft 218 kts 62°
2026-04-20 14:29 14.37295 120.77549 4006 ft 217 kts 61°
2026-04-20 14:29 14.38034 120.78904 3722 ft 217 kts 60°
2026-04-20 14:29 14.38787 120.80266 3426 ft 217 kts 59°
2026-04-20 14:30 14.39539 120.81613 3223 ft 216 kts 59°
2026-04-20 14:30 14.40290 120.82957 3244 ft 215 kts 59°
2026-04-20 14:30 14.41024 120.84270 3268 ft 210 kts 59°
2026-04-20 14:30 14.41758 120.85584 3152 ft 207 kts 59°
2026-04-20 14:31 14.42473 120.86865 2933 ft 206 kts 60°
2026-04-20 14:31 14.43178 120.88130 2629 ft 197 kts 60°
2026-04-20 14:31 14.43832 120.89306 2370 ft 180 kts 60°
2026-04-20 14:31 14.44425 120.90372 2107 ft 166 kts 60°
2026-04-20 14:32 14.44978 120.91367 1867 ft 151 kts 60°
2026-04-20 14:32 14.45493 120.92292 1681 ft 147 kts 60°
2026-04-20 14:32 14.46008 120.93215 1514 ft 147 kts 60°
2026-04-20 14:32 14.46513 120.94125 1341 ft 146 kts 60°
2026-04-20 14:33 14.47016 120.95032 1161 ft 146 kts 60°
2026-04-20 14:33 14.47521 120.95940 981 ft 145 kts 60°
2026-04-20 14:33 14.48039 120.96851 778 ft 145 kts 61°
2026-04-20 14:33 14.48536 120.97761 604 ft 145 kts 61°
2026-04-20 14:34 14.49039 120.98655 404 ft 144 kts 62°
2026-04-20 14:34 14.49534 120.99551 231 ft 143 kts 62°
2026-04-20 14:34 14.50031 121.00445 90 ft 141 kts 62°
2026-04-20 14:34 14.50457 121.01224 82 ft 102 kts 61°
2026-04-20 14:35 14.50704 121.01656 82 ft 30 kts 50°
2026-04-20 14:35 14.50803 121.01748 82 ft 13 kts 38°
2026-04-20 14:35 14.50877 121.01785 82 ft 11 kts 352°
2026-04-20 14:35 14.50943 121.01734 82 ft 12 kts 315°
2026-04-20 14:36 14.51005 121.01669 82 ft 13 kts 315°
2026-04-20 14:36 14.51071 121.01601 82 ft 13 kts 315°
2026-04-20 14:36 14.51140 121.01530 82 ft 14 kts 315°
2026-04-20 14:36 14.51181 121.01488 82 ft 0 kts 313°
2026-04-20 14:37 14.51189 121.01479 82 ft 3 kts 315°
2026-04-20 14:37 14.51229 121.01438 82 ft 9 kts 315°
2026-04-20 14:37 14.51288 121.01439 82 ft 9 kts 42°
2026-04-20 14:37 14.51334 121.01495 82 ft 10 kts 51°
2026-04-20 14:38 14.51386 121.01552 82 ft 11 kts 45°
2026-04-20 14:38 14.51442 121.01595 82 ft 7 kts 359°
2026-04-20 14:38 14.51485 121.01559 82 ft 8 kts 314°
2026-04-20 14:38 14.51519 121.01524 82 ft 5 kts 314°
2026-04-20 14:39 14.51552 121.01508 82 ft 5 kts 19°
2026-04-20 14:39 14.51585 121.01539 82 ft 7 kts 44°
2026-04-20 14:39 14.51609 121.01562 82 ft 1 kts 44°
2026-04-20 14:39 14.51612 121.01566 82 ft 0 kts 44°